Location: B�hl
(48.6968°N, 8.1352°E)
Time: 10:45:22
(UTC+00:00)

MOS 1 Rocket - Pass Details

Date: 08 March 2021
Orbit: 615 x 829 km, 97.4° (Epoch: 10 April)

Event Time Altitude Azimuth Distance (km) Brightness Sun altitude
Rises 17:41:18 0° 11° (N) 3,230 6.6 -4.0°
Reaches altitude 10° 17:43:34 10° 11° (N) 2,329 5.9 -4.3°
Maximum altitude 17:48:44 79° 285° (WNW) 820 3.8 -5.2°
Drops below altitude 10° 17:54:06 10° 200° (SSW) 2,409 6.4 -6.1°
Sets 17:56:29 0° 199° (SSW) 3,349 7.1 -6.5°
